Location: Sternwarte Stuttgart
(48.7670°N, 9.1830°E)
Time: 10:43:29
(UTC+01:00)

DMSP B5D1-3 - Pass Details

Date: 24 January 2019
Orbit: 767 x 781 km, 98.6° (Epoch: 21 February)

Event Time Altitude Azimuth Distance (km) Brightness Sun altitude
Rises 06:06:03 0° 170° (S) 3,238 8.0 -19.1°
Reaches altitude 10° 06:08:21 10° 172° (S) 2,313 7.2 -18.7°
Maximum altitude 06:13:27 72° 256° (WSW) 813 4.4 -17.9°
Drops below altitude 10° 06:18:34 10° 342° (NNW) 2,323 6.7 -17.1°
Sets 06:20:54 0° 344° (NNW) 3,253 7.5 -16.7°
